Regional Weather Roundup
Issued by NWS

Home | Current Version | Previous Version | Graphics & Text | Print | Product List | Glossary On
Versions: 1 2 3 4 5 6 7 8 9 10 11 12 13 14 15 16 17 18 19 20 21 22 23 24 25 26 27 28 29 30 31 32 33 34 35 36 37 38 39 40 41 42 43 44 45 46 47 48 49 50
000
ASUS43 KIND 271409
RWRIN

WEATHER ROUNDUP FOR INDIANA
NATIONAL WEATHER SERVICE INDIANAPOLIS IN
1000 AM EDT TUE SEP 27 2016

NOTE: "FAIR" INDICATES FEW OR NO CLOUDS BELOW 12,000 FEET WITH NO
SIGNIFICANT WEATHER AND/OR OBSTRUCTIONS TO VISIBILITY.

* - STATION DOES NOT REPORT WEATHER SUCH AS PRECIPITATION OR FOG.

+ - STATION NOT QUALITY CONTROLLED BY THE NATIONAL WEATHER SERVICE.
    USE DATA WITH CAUTION...ESPECIALLY DEWPOINT AND RELATIVE
    HUMIDITY OBSERVATIONS.

INZ001>003-010>013-019-020-271500-
NORTHWEST INDIANA

CITY           SKY/WX    TMP DP  RH WIND       PRES   REMARKS
GARY /AIRPORT/ MOSUNNY   59  41  51 SW13      29.85F
KNOX *+        SUNNY     55  23  28 SW8       29.87S
LA PORTE +     SUNNY     58  46  63 SW9       29.85F
MICHIGAN CITY+ SUNNY     57  45  62 MISG      29.84F
MONTICELLO +   SUNNY     58  40  51 W9        29.90S
RENSSELAER +   SUNNY     59  43  55 SW10G16   29.90S
VALPARAISO     SUNNY     55  44  66 SW12      29.86S

$$

LMZ046-743>745-271500-
SOUTHERN LAKE MICHIGAN

STATION/POSITION TIME  TEMP    WIND        PRES    WAVE
                       AIR SEA DIR/SP/G            HT
                 (UTC) (F)     (DEG/KT/KT) (MB)    (FT)
BURNS HARBOR     1300   56     220/  9/ 16 1011.2F
MICHIGAN CITY    1300   59     220/ 23/ 25   N/A
5NW MICH CITY    1400   60 67  240/ 17/ 21   N/A     4

$$

INZ004-005-014>016-021>024-271500-
NORTH CENTRAL INDIANA

CITY           SKY/WX    TMP DP  RH WIND       PRES   REMARKS
ELKHART        SUNNY    N/A N/A N/A SW14      29.83S
GOSHEN         SUNNY     56  42  59 SW15      29.84S
LOGANSPORT +   SUNNY     57  45  62 W14       29.91S
PERU/GRISSOM   SUNNY     60  45  59 W16       29.88F
ROCHESTER +    SUNNY     61  46  59 W10G18    29.88S
SOUTH BEND     SUNNY     54  44  69 SW14      29.84F
WARSAW +       SUNNY     55  41  58 W12       29.86F

$$

INZ006>009-017-018-025>027-271500-
NORTHEAST INDIANA

CITY           SKY/WX    TMP DP  RH WIND       PRES   REMARKS
ANGOLA *+        N/A     57  45  62 SW13      29.83S
AUBURN +       SUNNY     57  43  58 SW7       29.86S
FORT WAYNE     MOSUNNY   59  43  55 SW14      29.87F
HUNTINGTON +   SUNNY     58  45  60 W10       29.89S
KENDALLVILLE + SUNNY     56  43  62 SW12G17   29.85S

$$

INZ028-029-035-036-043>045-051>053-271500-
WEST CENTRAL INDIANA

CITY           SKY/WX    TMP DP  RH WIND       PRES   REMARKS
CRAWFORDSVL +  SUNNY     57  46  65 SW9       29.95R
GREENCASTLE +  SUNNY     57  50  77 W5        29.97S
LAFAYETTE      SUNNY     57  48  72 W6        29.92S
TERRE HAUTE    SUNNY     59  46  62 W12       29.97F

$$

INZ030>032-037>040-046>048-054>057-064-065-271500-
CENTRAL INDIANA

CITY           SKY/WX    TMP DP  RH WIND       PRES   REMARKS
ANDERSON       SUNNY     59  46  63 SW9       29.94F
COLUMBUS       SUNNY     57  50  77 SW7       29.99S
FISHERS *+     SUNNY     59  50  72 SW9       29.94F
FRANKFORT +    SUNNY     62  46  56 W9G17     29.94S
GREENWOOD *+   SUNNY     61  46  59 W9        29.97S
INDIANAPOLIS   SUNNY     59  47  64 SW10      29.95F
-EAGLE CREEK   SUNNY     60  46  59 VRB6      29.94F
MARION +       SUNNY     60  43  52 W13       29.91F
MT COMFORT *+  SUNNY     61  45  55 SW12      29.95F
SHELBYVILLE    SUNNY     60  48  64 SW8       29.96F
ZIONSVILLE +   SUNNY     59  45  58 W9G16     29.94S

$$

INZ033-034-041-042-049-050-058-059-271500-
EAST CENTRAL INDIANA

CITY           SKY/WX    TMP DP  RH WIND       PRES   REMARKS
MUNCIE         SUNNY     62  44  51 SW9       29.92F

$$

INZ060-061-067>069-081>083-085>088-271500-
SOUTHWEST INDIANA

CITY           SKY/WX    TMP DP  RH WIND       PRES   REMARKS
EVANSVILLE     SUNNY     61  51  70 W5        30.04S
HUNTINGBURG *+   N/A     57  52  82 S5        30.03F
WASHINGTON +   SUNNY     62  49  60 MISG      30.00F

$$

INZ062-063-066-070>080-084-089>092-271500-
SOUTH CENTRAL AND SOUTHEAST INDIANA

CITY           SKY/WX    TMP DP  RH WIND       PRES   REMARKS
BLOOMINGTON    SUNNY     60  45  57 SW10      29.99S
MADISON *+     SUNNY     59  50  72 SW5       30.03S
NORTH VERNON + SUNNY     57  55  94 SW6       30.01S
SEYMOUR +      SUNNY     61  50  67 CALM      30.00F

$$




USA.gov is the U.S. government's official web portal to all federal, state and local government web resources and services.